Unknown Rural MB Airport

CA-0709 · Manitoba, Canada

METAR historie CA-0709 · Unknown Rural MB Airport

Hieronder zie je METAR's van de afgelopen dagen. Kies een jaar om door oudere METAR's te bladeren, vanaf het jaar 2007.

15 juli 2024

Tijd Code Weer Temp. Zicht Plafond Wind METAR/SPECI
11:00
V
21 °C 14 mi - 010° 010° 9 kt METAR CYWG 151600Z CCA 01009KT 14SM FEW016TCU FEW090 21/17 A2981 RMK TCU2ACC1 ACC TR TCU DVLPG ALQDS CU ASOCTD SLP097 DENSITY ALT 1800FT
10:00
V
20 °C 9 mi - 330° 330° 10 kt METAR CYWG 151500Z 33010KT 9SM FEW008 SCT013 SCT018CB SCT050 SCT200 20/18 A2981 RMK CF2CU1CB1SC1CI1 CB TR SC TR CI TR DIST BR ALL HRZNS CB NE-E MOV E SLP099 DENSITY ALT 1700FT
09:55
V
19 °C 13 mi - 330° 330° 10 kt METAR CYWG 151455Z 33010KT 13SM FEW008 SCT013CB SCT090 SCT200 19/18 A2981 RMK CF2CB1ACC1CI1 ACC TR VIS LWR NE-E DIST SH CB CLD NE-E MOV E SLP099 DENSITY ALT 1600FT
09:32
V
18 °C 12 mi - 280° 280° 4 kt METAR CYWG 151432Z 28004KT 12SM SCT013CB SCT025 SCT075 SCT095 SCT200 18/17 A2981 RMK CB3SC1ACC1AC1CI1 ACC TR AC TR CI TR OCNL-SHRA TCU CLD DVLPG RPDLY INTO CB NE-E MOV E SLP098 DENSITY ALT 1400FT
09:25
M
17 °C 12 mi 1.300 ft 300° 300° 6 kt METAR CYWG 151425Z 30006KT 12SM BKN013 BKN025TCU BKN075 BKN095 17/17 A2981 RMK SC5TCU1ACC1AC1 TCU TR AC TR OCNL-SHRA TCU CLD NE SLP099 DENSITY ALT 1400FT
09:00
V
17 °C 9 mi 7.500 ft Var Var 2 kt METAR CYWG 151400Z VRB02KT 9SM -SHRA FEW010 FEW025TCU SCT040 BKN075 BKN095 17/16 A2980 RMK CF1TCU1SC2AC1AC1 TCU NE-SE DIST TCU TOPS SW-NW SLP094 DENSITY ALT 1400FT
08:39
M
17 °C 6 mi 1.500 ft 310° 310° 5 kt METAR CYWG 151339Z 31005KT 6SM -SHRA BR BKN015 BKN055TCU BKN095 17/16 A2980 RMK SC5TCU1AC2 TCU TR W SLP097 DENSITY ALT 1400FT
08:00
V
17 °C 15 mi 9.900 ft 030° 030° 2 kt METAR CYWG 151300Z 03002KT 15SM -SHRA FEW029TCU OVC099 17/16 A2978 RMK TCU2AS6 SLP087 DENSITY ALT 1400FT
07:00
V
17 °C 5 mi 10.000 ft 040° 040° 9 kt METAR CYWG 151200Z 04009KT 5SM -SHRA FEW004 SCT029CB OVC100 17/16 A2976 RMK SC1CB4AS4 SC TR CB E MOV E SLP081 DENSITY ALT 1400FT
06:40
L
17 °C 5 mi 400 ft 050° 050° 12 kt METAR CYWG 151140Z 05012KT 5SM -TSRA BKN004 BKN029CB OVC089 17/17 A2976 RMK SC5CB2AC1 CB OHD MOV E OCNL LTGCGICCC NE-SE SLP081 DENSITY ALT 1400FT
06:25
L
17 °C 4 mi 400 ft 010° 010° 10 - 21 kt METAR CYWG 151125Z 01010G21KT 330V030 4SM TSRA BKN004 OVC029CB 17/17 A2977 RMK SC6CB2 CB OHD MOV E FRQ LTGICCC S SLP082 DENSITY ALT 1400FT
06:18
L
17 °C 3 mi 400 ft 340° 340° 15 - 21 kt METAR CYWG 151118Z CCA 34015G21KT 3SM +TSRA BKN004CB OVC095 17/17 A2977 RMK CB7AS1 CB OHD MOV E FRQ LTGICCC OHD PRESRR SLP084 DENSITY ALT 1400FT
06:07
L
17 °C 6 mi 300 ft 360° 360° 11 kt METAR CYWG 151107Z 36011KT 6SM -TSRA BKN003CB OVC100 17/17 A2976 RMK CB6AS2 CB W MOV E OCNL LTGIC W AND NE SLP078 DENSITY ALT 1400FT
05:54
L
17 °C 6 mi 200 ft 350° 350° 10 kt METAR CYWG 151054Z 35010KT 6SM -RA BKN002 OVC099 17/17 A2975 RMK SC5AC3 SLP077 DENSITY ALT 1500FT
05:16
V
18 °C 5 mi 6.500 ft 050° 050° 6 kt METAR CYWG 151016Z 05006KT 5SM -SHRA FEW004 BKN065CB 18/18 A2974 RMK SF1CB6 CB W MOV E OCNL LTNG W SLP072 DENSITY ALT 1600FT
05:00
V
18 °C 10 mi 11.000 ft 050° 050° 3 kt METAR CYWG 151000Z 05003KT 340V070 10SM SHRA SCT071TCU BKN110 18/18 A2975 RMK TCU3AC4 SLP075 DENSITY ALT 1500FT
05:02
V
18 °C 12 mi 11.000 ft Var Var 2 kt METAR CYWG 151002Z VRB02KT 12SM -SHRA SCT071TCU BKN110 18/18 A2975 RMK TCU3AC4 SLP075 DENSITY ALT 1500FT
04:53
V
18 °C 15 mi 11.000 ft 360° 360° 5 kt METAR CYWG 150953Z 36005KT 15SM -RA BKN110 OVC150 18/18 A2975 RMK AC7AC1 SLP076 DENSITY ALT 1500FT
04:00
V
18 °C 15 mi 19.000 ft 250° 250° 3 kt METAR CYWG 150900Z 25003KT 190V270 15SM SCT013 OVC190 18/18 A2975 RMK SC4AC4 SLP076 DENSITY ALT 1600FT
03:48
M
18 °C 15 mi 1.300 ft 360° 360° 0 kt METAR CYWG 150848Z 00000KT 15SM OVC013 18/18 A2975 RMK SC8 SLP076 DENSITY ALT 1600FT
03:00
V
18 °C 15 mi 13.000 ft 300° 300° 3 kt METAR CYWG 150800Z 30003KT 250V340 15SM BKN130 18/18 A2976 RMK AC7 SLP080 DENSITY ALT 1600FT
02:00
V
18 °C 15 mi 13.000 ft Var Var 2 kt METAR CYWG 150700Z VRB02KT 15SM BKN130 18/18 A2977 RMK AC7 SLP083 DENSITY ALT 1600FT
01:00
V
19 °C 15 mi 17.000 ft 010° 010° 3 kt METAR CYWG 150600Z 01003KT 15SM BKN170 19/18 A2977 RMK AC7 SLP084 DENSITY ALT 1600FT
00:00
V
20 °C 15 mi 15.000 ft 250° 250° 7 kt METAR CYWG 150500Z 25007KT 15SM BKN150 OVC180 20/18 A2977 RMK AC5AC3 SLP083 DENSITY ALT 1800FT

14 juli 2024

Tijd Code Weer Temp. Zicht Plafond Wind METAR/SPECI
23:00
V
19 °C 15 mi 16.000 ft 190° 190° 5 kt METAR CYWG 150400Z 19005KT 15SM BKN160 BKN220 19/19 A2979 RMK AC5CI1 CI TR SLP090 DENSITY ALT 1700FT
22:00
V
19 °C 15 mi 11.000 ft 180° 180° 6 kt METAR CYWG 150300Z 18006KT 15SM FEW030 BKN110 19/18 A2981 RMK CU1AC4 SLP096 DENSITY ALT 1600FT
21:00
V
19 °C 15 mi 13.000 ft 050° 050° 4 kt METAR CYWG 150200Z 05004KT 030V110 15SM SCT025CB BKN130 BKN220 19/17 A2980 RMK CB4AC2CI1 CI TR CB N-NE MOV E SLP095 DENSITY ALT 1600FT
20:44
V
18 °C 15 mi 10.000 ft 060° 060° 10 - 17 kt METAR CYWG 150144Z 06010G17KT 15SM SCT025CB BKN100 BKN220 18/17 A2980 RMK CB4AC2CI1 CI TR CB N-NE MOV E PRESFR SLP096 DENSITY ALT 1500FT
20:30
V
18 °C 13 mi 5.000 ft 010° 010° 12 - 37 kt METAR CYWG 150130Z 01012G37KT 300V030 13SM R31/3000VP6000FT/N -TSRA SCT025CB BKN050 BKN100 BKN220 18/17 A2982 RMK CB4SC2AC1CI1 CI TR CB NE-SE MOV E OCNL LTGIC NE-SE NXT CB W-NW PRESRR SLP102 DENSITY ALT 1500FT
20:23
L
20 °C ⅝ mi 2.000 ft 320° 320° 29 - 37 kt METAR CYWG 150123Z 32029G37KT 200V340 5/8SM R31/P6000FT/D +TSRA BKN020CB OVC055 20/17 A2982 RMK CB5SC3 FC DSAPRD CB W-SE MOV E PRESRR SLP100 DENSITY ALT 1700FT
20:20
V
22 °C 8 mi 8.500 ft 320° 320° 26 - 33 kt METAR CYWG 150120Z 32026G33KT 200V330 8SM TSRA FC SCT055CB BKN085 OVC130 OVC220 22/17 A2980 RMK CB4AC2AC2CI1 CI TR FUNNEL CLD DVLPG NE MOV E OCNL LTGCGIC N-NE DIST ROTOR CLD DVLPG W SLP094 DENSITY ALT 2000FT
20:00
V
25 °C 13 mi 8.500 ft 190° 190° 8 kt METAR CYWG 150100Z 19008KT 13SM VCSH SCT060CB BKN085 BKN130 BKN240 25/17 A2980 RMK CB3AC2AC2CI1 CI TR CB W-N MOV SLW E SLP092 DENSITY ALT 2300FT
19:00
V
26 °C 15 mi 14.000 ft 160° 160° 8 kt METAR CYWG 150000Z 16008KT 15SM FEW040CB FEW060 SCT095 BKN140 26/17 A2982 RMK CB1SC1ACC1AC2 CB W- NW MOV E SLP101 DENSITY ALT 2400FT
18:00
V
26 °C 15 mi - 220° 220° 7 kt METAR CYWG 142300Z 22007KT 15SM FEW045 SCT085 SCT100 SCT160 SCT260 26/16 A2984 RMK CU1ACC3AC1AC1CI1 CU TR AC TR CI TR SLP108 DENSITY ALT 2400FT
17:00
V
26 °C 15 mi - 220° 220° 2 kt METAR CYWG 142200Z 22002KT 15SM FEW045 FEW095 FEW110 SCT130 SCT260 26/16 A2985 RMK CU1AC1AC1AC1CI1 CU TR CI TR SLP113 DENSITY ALT 2300FT
16:00
V
25 °C 15 mi 12.000 ft 270° 270° 3 kt METAR CYWG 142100Z 27003KT 230V290 15SM FEW045 FEW110 BKN120 BKN140 BKN200 25/16 A2987 RMK CU1AC1AC5AC1CI1 CU TR CI TR SLP118 DENSITY ALT 2200FT
15:00
V
25 °C 15 mi 18.000 ft 270° 270° 7 kt METAR CYWG 142000Z 27007KT 15SM FEW045 FEW170 BKN180 BKN200 25/14 A2988 RMK CU1AC1AC5CC1 CU TR SLP120 DENSITY ALT 2200FT
14:00
V
25 °C 15 mi - 270° 270° 5 kt METAR CYWG 141900Z 27005KT 240V310 15SM FEW043 FEW150 SCT160 SCT170 SCT260 25/16 A2989 RMK CU1AC1AC2AC1CI1 CU TR CI TR SLP124 DENSITY ALT 2200FT
13:00
V
25 °C 15 mi - 270° 270° 4 kt METAR CYWG 141800Z 27004KT 250V320 15SM FEW045 FEW065 FEW260 25/14 A2991 RMK CU1SC1CI1 CU TR SC TR CI TR CONTRAILS SLP129 DENSITY ALT 2200FT
12:00
V
24 °C 15 mi - 300° 300° 5 kt METAR CYWG 141700Z 30005KT 240V330 15SM FEW040 FEW100 FEW120 24/16 A2992 RMK CU1AC1AC1 CU TR AC TR AC TR CONTRAILS SLP133 DENSITY ALT 2100FT
11:00
V
24 °C 15 mi - 260° 260° 6 kt METAR CYWG 141600Z 26006KT 210V280 15SM FEW030 FEW110 24/16 A2992 RMK CU1AC1 CU TR AC TR SLP134 DENSITY ALT 2000FT
10:00
V
23 °C 12 mi - 240° 240° 6 kt METAR CYWG 141500Z 24006KT 180V250 12SM FEW085 FEW110 FEW120 FEW200 23/17 A2993 RMK AC1AC1AC1CC1 AC TR CC TR SLP137 DENSITY ALT 1900FT
09:00
V
21 °C 12 mi 12.000 ft 230° 230° 3 kt METAR CYWG 141400Z 23003KT 190V310 12SM FEW110 BKN120 21/17 A2993 RMK AC1AC5 DIST HRZN HZ SLP138 DENSITY ALT 1700FT
08:00
V
18 °C 12 mi - 290° 290° 4 kt METAR CYWG 141300Z 29004KT 12SM FEW180 18/17 A2992 RMK AC1 SLP136 DENSITY ALT 1400FT
07:00
V
16 °C 15 mi - 290° 290° 3 kt METAR CYWG 141200Z 29003KT 15SM FEW180 FEW250 16/16 A2992 RMK AC1CI1 AC TR CI TR SLP133 DENSITY ALT 1100FT
06:00
V
14 °C 15 mi - 290° 290° 3 kt METAR CYWG 141100Z 29003KT 15SM FEW250 14/14 A2991 RMK CI1 CI TR SLP132
05:00
V
15 °C 15 mi - 310° 310° 3 kt METAR CYWG 141000Z 31003KT 15SM FEW250 15/15 A2990 RMK CI1 CI TR SLP129 DENSITY ALT 1000FT
04:00
V
15 °C 15 mi - 280° 280° 3 kt METAR CYWG 140900Z 28003KT 15SM FEW250 15/15 A2990 RMK CI1 CI TR SLP127 DENSITY ALT 1000FT
03:00
V
17 °C 15 mi - 040° 040° 5 kt METAR CYWG 140800Z 04005KT 15SM SKC 17/16 A2988 RMK SLP121 DENSITY ALT 1300FT
02:00
V
18 °C 15 mi 5.300 ft 360° 360° 6 kt METAR CYWG 140700Z 36006KT 15SM BKN053 18/15 A2990 RMK SC6 SLP128 DENSITY ALT 1300FT
01:00
V
19 °C 15 mi 5.200 ft 340° 340° 7 kt METAR CYWG 140600Z 34007KT 15SM BKN052 19/16 A2991 RMK SC6 SLP130 DENSITY ALT 1500FT
00:00
V
20 °C 15 mi 6.200 ft 340° 340° 6 kt METAR CYWG 140500Z 34006KT 15SM BKN062 20/17 A2990 RMK SC6 SLP128 DENSITY ALT 1600FT

13 juli 2024

Tijd Code Weer Temp. Zicht Plafond Wind METAR/SPECI
23:00
V
21 °C 15 mi 5.500 ft 330° 330° 5 kt METAR CYWG 140400Z 33005KT 15SM OVC055 21/18 A2990 RMK SC8 SLP128 DENSITY ALT 1700FT
22:00
V
21 °C 15 mi - 300° 300° 6 kt METAR CYWG 140300Z 30006KT 15SM FEW090 21/20 A2988 RMK AC2 SLP121 DENSITY ALT 1700FT
21:00
V
23 °C 15 mi - 290° 290° 6 kt METAR CYWG 140200Z 29006KT 15SM FEW031TCU FEW250 23/21 A2986 RMK TCU1CI2 TCU TR SLP116 DENSITY ALT 1900FT
20:00
V
25 °C 15 mi - 300° 300° 7 kt METAR CYWG 140100Z 30007KT 15SM FEW031CB FEW250 25/20 A2987 RMK CB1CI1 CB TR DIST CB E SLP118 DENSITY ALT 2200FT
19:00
V
26 °C 15 mi - 360° 360° 0 kt METAR CYWG 140000Z 00000KT 15SM FEW031CB FEW230 26/19 A2987 RMK CB1CI2 CB TR CB E SLP116 DENSITY ALT 2300FT
18:00
V
23 °C 15 mi 12.000 ft 050° 050° 6 kt METAR CYWG 132300Z 05006KT 15SM SCT031CB BKN120 BKN200 23/19 A2988 RMK CB3AC2CI2 CB E-SW SLP120 DENSITY ALT 1900FT
17:48
V
22 °C 15 mi 12.000 ft 050° 050° 7 - 16 kt SPECI CYWG 132248Z 05007G16KT 15SM SCT031CB BKN120 BKN200 22/19 A2989 RMK CB3AC2CI2 CB E - SW SLP124 DENSITY ALT 1800FT
17:31
V
22 °C 15 mi 3.200 ft 040° 040° 12 - 18 kt SPECI CYWG 132231Z 04012G18KT 15SM -SHRA BKN032CB BKN120 BKN250 22/18 A2988 RMK CB5AC1CI1 CB E S PRESFR SLP120 DENSITY ALT 1800FT
17:00
V
26 °C 15 mi 25.000 ft 340° 340° 15 - 21 kt METAR CYWG 132200Z 34015G21KT 15SM SCT030TCU BKN250 26/21 A2989 RMK TCU3CI4 SLP122 DENSITY ALT 2300FT
16:00
V
28 °C 15 mi 25.000 ft 310° 310° 8 - 16 kt METAR CYWG 132100Z 31008G16KT 15SM FEW031 BKN250 28/21 A2986 RMK CU2CI3 SLP113 DENSITY ALT 2600FT
15:00
V
28 °C 15 mi - 260° 260° 9 kt METAR CYWG 132000Z 26009KT 15SM FEW036CB FEW250 28/21 A2985 RMK CB1CI1 CB TR CB N CU ASOCTD SLP107 DENSITY ALT 2600FT
14:00
V
27 °C 15 mi - 260° 260° 9 kt METAR CYWG 131900Z 26009KT 15SM FEW028CB FEW250 27/20 A2986 RMK CB1CI1 CU ASOCTD CB N SLP113 DENSITY ALT 2500FT
13:40
V
27 °C 15 mi - 220° 220° 9 kt SPECI CYWG 131840Z 22009KT 200V260 15SM FEW027CB FEW250 27/20 A2986 RMK CB1CI1 WSHFT 1831 DIST CB N SLP113 DENSITY ALT 2500FT
13:00
V
27 °C 15 mi - 280° 280° 10 kt METAR CYWG 131800Z 28010KT 15SM FEW044 FEW100 SCT250 27/21 A2988 RMK CU1AC1CI3 CU TR AC TR SLP118 DENSITY ALT 2400FT
12:00
V
25 °C 15 mi - 260° 260° 8 kt METAR CYWG 131700Z 26008KT 15SM FEW044 FEW100 SCT250 25/20 A2987 RMK SC1AC1CI3 SC TR SLP115 DENSITY ALT 2300FT
11:00
V
23 °C 15 mi 25.000 ft 220° 220° 8 kt METAR CYWG 131600Z 22008KT 15SM FEW017 FEW044 SCT100 BKN250 23/19 A2987 RMK SC1SC1AC3CI4 SC TR SC TR CU ASOCTD SLP115 DENSITY ALT 2000FT
10:00
V
20 °C 15 mi 11.000 ft 120° 120° 7 kt METAR CYWG 131500Z 12007KT 15SM FEW043 BKN110 BKN250 20/19 A2982 RMK SC1AC6CI1 CI TR PRESFR SLP100 DENSITY ALT 1700FT
09:00
V
19 °C 12 mi 12.000 ft 330° 330° 3 kt METAR CYWG 131400Z 33003KT 12SM -SHRA FEW067CB OVC120 19/18 A2985 RMK CB1AC7 CB E MOV E SLP111 DENSITY ALT 1500FT
08:52
V
19 °C 12 mi 12.000 ft 350° 350° 8 kt SPECI CYWG 131352Z 35008KT 12SM -SHRA FEW067CB OVC120 19/18 A2986 RMK CB1AC7 CB N E MOV E OCNL LTGICCC E SLP112 DENSITY ALT 1500FT
08:22
V
19 °C 6 mi 12.000 ft 020° 020° 8 kt SPECI CYWG 131322Z 02008KT 6SM -TSRA FEW017 SCT067CB OVC120 19/18 A2988 RMK SC1CB3AC5 SC TR CB E MOV E FREQ LTGICCC E PRESFR SLP119 DENSITY ALT 1500FT
08:09
M
19 °C 6 mi 2.100 ft 330° 330° 6 kt SPECI CYWG 131309Z 33006KT 6SM TSRA SCT005 BKN021CB OVC085 19/18 A2991 RMK SC3CB4AC1 CB OHD MOV E FRQ LTGCGICCC N AND E SLP130 DENSITY ALT 1500FT
08:00
M
19 °C 12 mi 2.500 ft 310° 310° 8 kt METAR CYWG 131300Z 31008KT 12SM -TSRA FEW003 BKN025CB OVC110 19/18 A2991 RMK SC1CB6AC1 CB N-NE MOV E FRQ LTGCGICCC N-E SLP130 DENSITY ALT 1500FT
07:52
M
18 °C 10 mi 1.800 ft 310° 310° 12 - 18 kt SPECI CYWG 131252Z 31012G18KT 10SM -TSRA SCT003 BKN018CB OVC130 18/18 A2992 RMK SC3CB3AC2 CB E MOV E OCNL LTGCGICCC N AND SE SLP132 DENSITY ALT 1400FT
07:45
M
19 °C 8 mi 1.700 ft 310° 310° 14 - 22 kt SPECI CYWG 131245Z 31014G22KT 8SM R13/3500VP6000FT/U SHRA SCT003 BKN017CB OVC088 19/18 A2991 RMK SC3CB4AC1 CB OHD MOV E FRQ LTGCGICCC SE AND N PRESFR SLP130 DENSITY ALT 1400FT
07:32
L
19 °C ½ mi 1.500 ft 310° 310° 21 - 27 kt SPECI CYWG 131232Z 31021G27KT 1/2SM R13/P6000FT/N +TSRA SCT006 OVC015CB 19/18 A2992 RMK RA2SC2CB4 CB OHD MOV NE FRQ LTGCGICCC S PRESRR SLP135 DENSITY ALT 1500FT
07:29
I
19 °C 1 mi 1.500 ft 300° 300° 19 - 31 kt SPECI CYWG 131229Z 30019G31KT 1SM R13/P6000FT/D TSRA SCT008 OVC015CB 19/18 A2993 RMK RA2SC1CB5 CB OHD MOV NE FRQ LTGCGICCC S PRESRR SLP136 DENSITY ALT 1500FT
07:18
M
21 °C 15 mi 1.300 ft 280° 280° 24 - 34 kt SPECI CYWG 131218Z 28024G34KT 15SM -TSRA BKN013CB OVC051 21/19 A2991 RMK CB7SC1 CB S MOV N LTGCGICCC S PRESRR SLP130 DENSITY ALT 1700FT
07:00
M
22 °C 15 mi 1.100 ft 230° 230° 10 - 16 kt METAR CYWG 131200Z CCA 23010G16KT 180V250 15SM BKN011CB OVC130 22/21 A2986 RMK CB6AC2 CB S MOV NE DIST LTNG S PRESRR SLP113 DENSITY ALT 1900FT
06:00
V
21 °C 15 mi 17.000 ft 160° 160° 5 kt METAR CYWG 131100Z 16005KT 15SM FEW035 BKN170 BKN250 21/21 A2983 RMK CU2AC3CI2 SLP101 DENSITY ALT 1800FT
05:00
V
22 °C 15 mi 25.000 ft Var Var 2 kt METAR CYWG 131000Z VRB02KT 15SM SCT170 BKN250 22/21 A2983 RMK AC4CI2 SLP101 DENSITY ALT 1900FT
04:00
V
21 °C 15 mi - 170° 170° 5 kt METAR CYWG 130900Z 17005KT 15SM FEW040 21/21 A2982 RMK SC2 SLP100 DENSITY ALT 1900FT
03:00
V
23 °C 15 mi - 220° 220° 5 kt METAR CYWG 130800Z 22005KT 15SM FEW040 23/21 A2983 RMK SC2 SLP101 DENSITY ALT 2100FT
02:00
V
24 °C 15 mi - 200° 200° 10 kt METAR CYWG 130700Z CCA 20010KT 15SM SCT039 SCT130 24/21 A2984 RMK SC3AC1 AC TR SLP104 DENSITY ALT 2100FT
01:00
V
23 °C 15 mi - 170° 170° 5 kt METAR CYWG 130600Z 17005KT 15SM FEW130 23/21 A2984 RMK AC2 SLP105 DENSITY ALT 2100FT
Wijziging doorgeven